Big Bear City, CA

5:13 PM PDT on June 22, 2017 (GMT -0700)
Big Bear City

Weather History for KL35 - February, 2014

Change the Weather History Date:

Saturday, February 8, 2014

  Actual Average (KBUO) Record (KBUO)
Temperature  
Mean Temperature 45 °F -  
Max Temperature 55 °F 56 °F 68 °F (2000)
Min Temperature 35 °F 40 °F 32 °F (2001)
Degree Days  
Heating Degree Days 20    
Moisture  
Dew Point 33 °F    
Average Humidity 66    
Maximum Humidity 87    
Minimum Humidity 44    
Precipitation  
Precipitation 0.00 in - - ()
Sea Level Pressure  
Sea Level Pressure 30.26 in    
Wind  
Wind Speed 10 mph (WSW)    
Max Wind Speed 16 mph    
Max Gust Speed 26 mph    
Visibility 10 miles    
Events      
Averages and records for this station are not official NWS values.
T = Trace of Precipitation, MM = Missing Value Source: NWS Daily Summary

Daily Weather History Graph

Daily Weather History Graph

Search for Another Location

Airport or City:

Trip Planner

Search our weather history database for the weather conditions in past years. The results will help you decide how hot, cold, wet, or windy it might be!

Date:

Astronomy

Feb. 08, 2014 Rise Set
Actual Time 6:39 AM PST 5:24 PM PST
Civil Twilight 6:13 AM PST 5:50 PM PST
Nautical Twilight 5:43 AM PST 6:20 PM PST
Astronomical Twilight 5:14 AM PST 6:49 PM PST
Moon 12:26 PM PST (2/8) 1:52 AM PST (2/8)
Length of Visible Light 11h 37m
Length of Day
10h 45m
Waxing Gibbous, 69% of the Moon is Illuminated
Feb 8
Waxing Gibbous
Feb 14
Full
Feb 22
Last Quarter
Mar 1
New
Mar 8
First Quarter

Hourly Weather History & Observations

Time (PST) Temp. Windchill Dew Point Humidity Pressure Visibility Wind Dir Wind Speed Gust Speed Precip Events Conditions
12:15 AM 37.4 °F 30.8 °F 26.6 °F 65% 30.18 in 10.0 mi WSW 9.2 mph 16.1 mph N/A   Scattered Clouds
12:35 AM 37.4 °F 30.8 °F 28.4 °F 70% 30.18 in 10.0 mi WSW 9.2 mph 23.0 mph N/A   Clear
12:55 AM 37.4 °F 28.9 °F 30.2 °F 75% 30.18 in 10.0 mi WSW 13.8 mph 19.6 mph N/A   Clear
1:15 AM 37.4 °F 29.3 °F 30.2 °F 75% 30.19 in 10.0 mi WSW 12.7 mph 18.4 mph N/A   Clear
1:35 AM 37.4 °F 30.8 °F 32.0 °F 81% 30.18 in 10.0 mi WSW 9.2 mph 18.4 mph N/A   Scattered Clouds
1:55 AM 37.4 °F 28.9 °F 32.0 °F 81% 30.18 in 10.0 mi WSW 13.8 mph 26.5 mph N/A   Scattered Clouds
2:15 AM 37.4 °F 29.3 °F 32.0 °F 81% 30.18 in 10.0 mi WSW 12.7 mph 21.9 mph N/A   Clear
2:35 AM 37.4 °F 28.9 °F 32.0 °F 81% 30.18 in 10.0 mi WSW 13.8 mph 20.7 mph N/A   Clear
2:55 AM 37.4 °F 29.3 °F 32.0 °F 81% 30.17 in 10.0 mi WSW 12.7 mph 20.7 mph N/A   Clear
3:15 AM 37.4 °F 29.3 °F 32.0 °F 81% 30.18 in 10.0 mi WSW 12.7 mph 23.0 mph N/A   Clear
3:35 AM 35.6 °F 27.1 °F 30.2 °F 81% 30.19 in 10.0 mi SW 12.7 mph 20.7 mph N/A   Clear
3:55 AM 35.6 °F 28.0 °F 30.2 °F 81% 30.18 in 10.0 mi WSW 10.4 mph 17.3 mph N/A   Clear
4:15 AM 37.4 °F 29.3 °F 32.0 °F 81% 30.19 in 10.0 mi WSW 12.7 mph 20.7 mph N/A   Clear
4:35 AM 37.4 °F 29.3 °F 30.2 °F 75% 30.19 in 10.0 mi SW 12.7 mph 17.3 mph N/A   Clear
4:55 AM 37.4 °F 29.8 °F 30.2 °F 75% 30.20 in 10.0 mi WSW 11.5 mph 17.3 mph N/A   Clear
5:15 AM 35.6 °F 28.0 °F 30.2 °F 81% 30.20 in 10.0 mi WSW 10.4 mph 17.3 mph N/A   Clear
5:35 AM 37.4 °F 31.4 °F 32.0 °F 81% 30.21 in 10.0 mi WSW 8.1 mph 23.0 mph N/A   Clear
5:55 AM 37.4 °F 30.3 °F 32.0 °F 81% 30.22 in 10.0 mi SW 10.4 mph 20.7 mph N/A   Clear
6:15 AM 37.4 °F 32.1 °F 33.8 °F 87% 30.22 in 10.0 mi SW 6.9 mph - N/A   Clear
6:35 AM 37.4 °F 32.8 °F 33.8 °F 87% 30.23 in 10.0 mi WSW 5.8 mph 18.4 mph N/A   Clear
6:55 AM 37.4 °F 34.9 °F 33.8 °F 87% 30.25 in 10.0 mi WSW 3.5 mph - N/A   Clear
7:15 AM 37.4 °F 33.8 °F 33.8 °F 87% 30.25 in 10.0 mi WSW 4.6 mph - N/A   Clear
7:35 AM 37.4 °F 33.8 °F 32.0 °F 81% 30.26 in 10.0 mi West 4.6 mph - N/A   Clear
7:55 AM 37.4 °F 32.1 °F 32.0 °F 81% 30.27 in 10.0 mi West 6.9 mph - N/A   Clear
8:15 AM 39.2 °F 33.0 °F 32.0 °F 75% 30.28 in 10.0 mi West 9.2 mph - N/A   Clear
8:35 AM 41.0 °F 37.1 °F 32.0 °F 70% 30.29 in 10.0 mi WSW 5.8 mph - N/A   Clear
8:55 AM 44.6 °F 38.8 °F 33.8 °F 66% 30.30 in 10.0 mi West 11.5 mph 17.3 mph N/A   Clear
9:15 AM 46.4 °F 40.7 °F 33.8 °F 62% 30.30 in 10.0 mi West 12.7 mph 18.4 mph N/A   Clear
9:35 AM 48.2 °F - 33.8 °F 58% 30.31 in 10.0 mi WSW 10.4 mph 23.0 mph N/A   Clear
9:55 AM 50.0 °F - 33.8 °F 54% 30.31 in 10.0 mi WSW 10.4 mph 18.4 mph N/A   Clear
10:15 AM 50.0 °F - 33.8 °F 54% 30.31 in 10.0 mi West 13.8 mph 17.3 mph N/A   Clear
10:35 AM 51.8 °F - 33.8 °F 50% 30.31 in 10.0 mi WSW 13.8 mph 20.7 mph N/A   Clear
10:55 AM 51.8 °F - 33.8 °F 50% 30.31 in 10.0 mi WSW 13.8 mph 18.4 mph N/A   Clear
11:15 AM 53.6 °F - 33.8 °F 47% 30.31 in 10.0 mi WSW 10.4 mph 19.6 mph N/A   Clear
11:35 AM 53.6 °F - 33.8 °F 47% 30.30 in 10.0 mi WSW 8.1 mph 21.9 mph N/A   Clear
11:55 AM 53.6 °F - 33.8 °F 47% 30.29 in 10.0 mi West 11.5 mph - N/A   Clear
12:15 PM 55.4 °F - 33.8 °F 44% 30.28 in 10.0 mi West 11.5 mph - N/A   Clear
12:35 PM 55.4 °F - 33.8 °F 44% 30.27 in 10.0 mi SSW 10.4 mph 16.1 mph N/A   Clear
12:55 PM 55.4 °F - 33.8 °F 44% 30.26 in 10.0 mi West 8.1 mph - N/A   Clear
1:15 PM 55.4 °F - 33.8 °F 44% 30.26 in 10.0 mi West 12.7 mph 18.4 mph N/A   Clear
1:35 PM 55.4 °F - 33.8 °F 44% 30.26 in 10.0 mi West 16.1 mph 20.7 mph N/A   Clear
1:55 PM 53.6 °F - 32.0 °F 44% 30.26 in 10.0 mi WSW 12.7 mph 21.9 mph N/A   Clear
2:15 PM 53.6 °F - 32.0 °F 44% 30.25 in 10.0 mi West 16.1 mph 20.7 mph N/A   Clear
2:35 PM 53.6 °F - 32.0 °F 44% 30.25 in 10.0 mi WSW 13.8 mph 20.7 mph N/A   Clear
2:55 PM 53.6 °F - 32.0 °F 44% 30.25 in 10.0 mi West 15.0 mph - N/A   Clear
3:15 PM 53.6 °F - 32.0 °F 44% 30.25 in 10.0 mi SW 11.5 mph 21.9 mph N/A   Clear
3:35 PM 51.8 °F - 32.0 °F 47% 30.25 in 10.0 mi WSW 11.5 mph 17.3 mph N/A   Clear
3:55 PM 51.8 °F - 32.0 °F 47% 30.25 in 10.0 mi SW 10.4 mph - N/A   Clear
4:15 PM 51.8 °F - 32.0 °F 47% 30.26 in 10.0 mi SW 9.2 mph 17.3 mph N/A   Clear
4:35 PM 50.0 °F - 32.0 °F 50% 30.27 in 10.0 mi WSW 6.9 mph 16.1 mph N/A   Clear
4:55 PM 48.2 °F - 32.0 °F 54% 30.27 in 10.0 mi WSW 6.9 mph - N/A   Clear
5:15 PM 46.4 °F 44.3 °F 32.0 °F 57% 30.27 in 10.0 mi SW 4.6 mph - N/A   Clear
5:35 PM 44.6 °F 43.1 °F 32.0 °F 61% 30.27 in 10.0 mi SW 3.5 mph - N/A   Clear
5:55 PM 44.6 °F 40.7 °F 32.0 °F 61% 30.28 in 10.0 mi SW 6.9 mph - N/A   Clear
6:15 PM 42.8 °F 38.0 °F 32.0 °F 66% 30.29 in 10.0 mi SW 8.1 mph - N/A   Clear
6:35 PM 42.8 °F 38.6 °F 32.0 °F 66% 30.30 in 10.0 mi SW 6.9 mph - N/A   Clear
6:55 PM 42.8 °F 38.6 °F 32.0 °F 66% 30.30 in 10.0 mi SSW 6.9 mph - N/A   Clear
7:15 PM 42.8 °F 38.6 °F 33.8 °F 70% 30.30 in 10.0 mi SW 6.9 mph - N/A   Clear
7:35 PM 41.0 °F 35.8 °F 32.0 °F 70% 30.30 in 10.0 mi West 8.1 mph - N/A   Clear
7:55 PM 41.0 °F 36.4 °F 32.0 °F 70% 30.30 in 10.0 mi WNW 6.9 mph - N/A   Clear
8:15 PM 41.0 °F 36.4 °F 33.8 °F 76% 30.30 in 10.0 mi WNW 6.9 mph - N/A   Clear
8:35 PM 37.4 °F 31.4 °F 32.0 °F 81% 30.29 in 10.0 mi West 8.1 mph - N/A   Clear
8:55 PM 39.2 °F 33.6 °F 33.8 °F 81% 30.30 in 10.0 mi SW 8.1 mph - N/A   Clear
9:15 PM 42.8 °F 37.0 °F 35.6 °F 76% 30.30 in 10.0 mi WSW 10.4 mph 18.4 mph N/A   Clear
9:35 PM 41.0 °F 34.7 °F 35.6 °F 81% 30.30 in 10.0 mi WSW 10.4 mph - N/A   Clear
9:55 PM 44.6 °F 39.7 °F 35.6 °F 71% 30.30 in 10.0 mi WSW 9.2 mph 18.4 mph N/A   Clear
10:15 PM 42.8 °F 37.5 °F 33.8 °F 70% 30.30 in 10.0 mi WSW 9.2 mph - N/A   Clear
10:35 PM 42.8 °F 36.6 °F 33.8 °F 70% 30.29 in 10.0 mi WSW 11.5 mph - N/A   Clear
10:55 PM 42.8 °F 38.6 °F 33.8 °F 70% 30.30 in 10.0 mi WSW 6.9 mph - N/A   Clear
11:15 PM 41.0 °F 35.2 °F 33.8 °F 76% 30.29 in 10.0 mi WSW 9.2 mph - N/A   Clear
11:35 PM 41.0 °F 34.7 °F 33.8 °F 76% 30.29 in 10.0 mi West 10.4 mph - N/A   Clear
11:55 PM 37.4 °F 30.8 °F 32.0 °F 81% 30.29 in 10.0 mi West 9.2 mph - N/A   Clear